Regional Weather Roundup
Issued by NWS

Home | Current Version | Previous Version | Text Only | Print | Product List | Glossary On
Versions: 1 2 3 4 5 6 7 8 9 10 11 12 13 14 15 16 17 18 19 20 21 22 23 24 25 26 27 28 29 30 31 32 33 34 35 36 37 38 39 40 41 42 43 44 45 46 47 48 49 50
000
ASUS43 KLSX 210810
RWRMO

WEATHER SUMMARY FOR MISSOURI
NATIONAL WEATHER SERVICE SPRINGFIELD MO
200 AM CST TUE FEB 21 2017

NOTE: "FAIR" INDICATES FEW OR NO CLOUDS BELOW 12,000 FEET WITH NO
       SIGNIFICANT WEATHER AND/OR OBSTRUCTIONS TO VISIBILITY.
       CURRENT SKY AND/OR WEATHER CONDITIONS ARE NOT AVAILABLE FOR
       CHILLICOTHE AND FARMINGTON.

MOZ001>031-035>038-043-044-053-054-210900-
...NORTHERN AND WESTERN MISSOURI...

CITY           SKY/WX    TMP DP  RH WIND       PRES   REMARKS
KANSAS CTY INT MOCLDY    52  48  86 N7        29.93R
KANSAS C DTWN  CLOUDY    52  49  89 CALM      29.92S
LEE`S SUMMIT   CLOUDY    56  52  86 CALM      29.92S
ST JOSEPH      MOCLDY    46  44  93 N8        29.97R
CHILLICOTHE      N/A     52  50  93 CALM      29.94R
KIRKSVILLE     CLOUDY    56  54  93 CALM      29.92S

$$
MOZ066>068-077>081-088>096-101>105-210900-
...SOUTHWEST MISSOURI...

CITY           SKY/WX    TMP DP  RH WIND       PRES   REMARKS
SPRINGFIELD    CLOUDY    55  54  96 CALM      29.92F
JOPLIN         CLOUDY    53  53 100 E3        29.92F
BRANSON        LGT RAIN  55  55 100 CALM      29.93F

$$
MOZ032>034-039>042-045>050-055>058-069>072-210900-
...CENTRAL MISSOURI...

CITY           SKY/WX    TMP DP  RH WIND       PRES   REMARKS
COLUMBIA       CLOUDY    57  57 100 SW3       29.95R FOG
JEFFERSON CITY CLOUDY    58  57  97 CALM      29.94R FOG
ROLLA          LGT RAIN  56  56 100 CALM      29.93F FOG
SEDALIA        CLOUDY    58  55  90 CALM      29.93S
WHITEMAN AFB   MOCLDY    56  56 100 CALM      29.92S
WARRENSBURG    CLOUDY    52  50  93 SE5       29.92F
OSAGE BEACH    LGT RAIN  56  56 100 CALM      29.94F

$$
MOZ051-052-059>065-210900-
...EAST CENTRAL MISSOURI...

CITY           SKY/WX    TMP DP  RH WIND       PRES   REMARKS
ST LOUIS INTL  RAIN      62  59  90 CALM      29.94S
SPIRIT OF STL  LGT RAIN  61  60  97 W7        29.93F
ST CHARLES     LGT RAIN  60  59  96 CALM      29.93S FOG

$$
MOZ072>076-082>087-097>100-106>115-210900-
...SOUTH CENTRAL AND SOUTHEAST MISSOURI...

CITY           SKY/WX    TMP DP  RH WIND       PRES   REMARKS
CAPE GIRARDEAU MOCLDY    60  50  69 N5        29.90F
FARMINGTON     RAIN      59  56  89 CALM      29.96R
POPLAR BLUFF   LGT RAIN  58  57  97 NW3       29.92S
WEST PLAINS    LGT RAIN  57  56  96 N12G20    29.93F

$$




USA.gov is the U.S. government's official web portal to all federal, state and local government web resources and services.